Location: Street
(51.1247°N, 2.7429°W)
Time: 14:46:17
(UTC+00:00)

Tiangong - Visible Passes

Search period start: 27 November 2022 00:00
Search period end: 07 December 2022 00:00
Orbit: 386 x 393 km, 41.5° (Epoch: 27 November)

Date Brightness Start Highest point End Pass type
(mag) Time Alt. Az. Time Alt. Az. Time Alt. Az.
02 Dec 0.5 18:19:02 10° SSW 18:20:13 12° S 18:20:13 12° S visible
03 Dec 0.9 18:56:09 10° SW 18:56:35 12° SSW 18:56:35 12° SSW visible
04 Dec 0.3 17:57:44 10° SSW 17:59:30 14° S 18:00:34 12° SSE visible
05 Dec 0.6 16:59:26 10° SSW 17:00:50 12° SSE 17:02:16 10° SE visible
05 Dec 0.5 18:35:07 10° SW 18:36:43 14° S 18:36:43 14° S visible
06 Dec 0.5 17:36:16 10° SW 17:38:10 15° S 17:40:04 10° SE visible
